Regional Weather Roundup
Issued by NWS

Home | Current Version | Previous Version | Text Only | Print | Product List | Glossary Off
Versions: 1 2 3 4 5 6 7 8 9 10 11 12 13 14 15 16 17 18 19 20 21 22 23 24 25 26 27 28 29 30 31 32 33 34 35 36 37 38 39 40 41 42 43 44 45 46 47 48 49 50

000
ASUS44 KMEG 181700
RWRTN
TENNESSEE HOURLY STATE WEATHER ROUNDUP
NATIONAL WEATHER SERVICE MEMPHIS TN
1100 AM CST THU DEC 18 2014

TNZ002-004-019-021-049-052-054-088>092-181800-
WEST TENNESSEE

CITY           SKY/WX    TMP DP  RH WIND       PRES   REMARKS
MEMPHIS INTL   CLOUDY    42  36  79 E3        30.25F
NWS MEMPHIS      N/A     40 N/A N/A MISG        N/A
JACKSON        CLOUDY    40  35  83 E3        30.26F HAZE
DYERSBURG      CLOUDY    37  25  60 E6        30.28F WCI  33
UNION CITY     CLOUDY    34  34 100 NE6       30.27F WCI  29
PARIS          CLOUDY    34  30  86 NE5       30.27F WCI  30
LEXINGTON      CLOUDY    37  34  87 CALM      30.25S
SAVANNAH       CLOUDY    39  36  87 N5        30.25S
$$

TNZ008-025-027-028-033-062-065-066-181800-
NORTH MIDDLE TENNESSEE

CITY           SKY/WX    TMP DP  RH WIND       PRES   REMARKS
NASHVILLE      CLOUDY    36  32  85 N3        30.24F
CLARKSVILLE    CLOUDY    34  30  85 N7        30.28R WCI  28
COOKEVILLE     MOSUNNY   37  34  87 CALM      30.19F
CROSSVILLE     CLOUDY    40  30  67 CALM      30.16F
$$

TNZ061-075-076-078-094-096-097-181800-
SOUTH MIDDLE TENNESSEE

CITY           SKY/WX    TMP DP  RH WIND       PRES   REMARKS
FAYETTEVILLE   MOSUNNY   37  32  81 CALM      30.20F
TULLAHOMA      MOSUNNY   37  34  87 CALM      30.20F
WINCHESTER     MOSUNNY   39  34  81 CALM      30.21F
SHELBYVILLE    PTSUNNY   37  36  93 N5        30.22F WCI  34
$$

TNZ017-018-042-046-047-181800-
NORTHEAST TENNESSEE

CITY           SKY/WX    TMP DP  RH WIND       PRES   REMARKS
TRI CITIES     PTSUNNY   38  31  76 NE5       30.17F WCI  34
ELIZABETHTON   CLOUDY    37  30  75 CALM      30.15F
$$

TNZ012-013-036-069-073-074-181800-
CENTRAL EAST TENNESSEE

CITY           SKY/WX    TMP DP  RH WIND       PRES   REMARKS
KNOXVILLE      CLOUDY    40  30  67 CALM      30.19S
GATLINBURG     SUNNY     39  30  70 N3        30.18F
$$

TNZ083-085-099-181800-
SOUTHEAST TENNESSEE

CITY           SKY/WX    TMP DP  RH WIND       PRES   REMARKS
CHATTANOOGA    CLOUDY    42  33  70 CALM      30.22F
$$

SKY/WX REPORTED AS FAIR MEANS FEW OR NO CLOUDS BELOW
12 THOUSAND FEET.



USA.gov is the U.S. government's official web portal to all federal, state and local government web resources and services.